Regional Weather Roundup
Issued by NWS

Home | Current Version | Previous Version | Graphics & Text | Print | Product List | Glossary On
Versions: 1 2 3 4 5 6 7 8 9 10 11 12 13 14 15 16 17 18 19 20 21 22 23 24 25 26 27 28 29 30 31 32 33 34 35 36 37 38 39 40 41 42 43 44 45 46 47 48 49 50
000
ASUS45 KCYS 012210
RWRWY

WYOMING REGIONAL WEATHER ROUNDUP
NATIONAL WEATHER SERVICE CHEYENNE WY
400 PM MDT MON JUN 01 2015

NOTE:  "FAIR" INDICATES FEW OR NO CLOUDS BELOW 12,000 FEET
WITH NO SIGNIFICANT WEATHER AND/OR OBSTRUCTIONS TO VISIBILITY.

WYZ001-012300-
...YELLOWSTONE NATIONAL PARK...

CITY           SKY/WX    TMP DP  RH WIND       PRES   REMARKS
LK YELLOWSTONE   N/A     62  43  49 CALM      30.06F
W YELLOWSTONE  NOT AVBL

$$
WYZ002>013-054>058-071-098>099-012300-
...NORTHERN WYOMING...

CITY           SKY/WX    TMP DP  RH WIND       PRES   REMARKS
JACKSON        MOSUNNY   72  37  28 SW7       29.96S
CODY           CLOUDY    72  54  53 CALM      29.87F
GREYBULL       MOSUNNY   85  45  24 S7        29.77F
WORLAND        PTSUNNY   87  45  23 SE7       29.78F
SHERIDAN       CLOUDY    80  57  45 NW5       29.82F
BUFFALO        CLOUDY    80  55  42 VRB5      29.88F
GILLETTE         N/A     84  54  35 SW9       29.85F
HULETT         FAIR      86  50  28 SW14      29.88F
NEWCASTLE      FAIR      82  54  36 MISG      29.89F

$$
WYZ014>020-022>026-101>103-012300-
...CENTRAL WYOMING...

CITY           SKY/WX    TMP DP  RH WIND       PRES   REMARKS
BIG PINEY      PTSUNNY   78  37  22 SW13G22   30.01F
PINEDALE       PTSUNNY   70  34  26 CALM      30.03F
DUBOIS         FAIR      63  37  39 N5        30.03F
LANDER         CLOUDY    73  37  27 SW32G52   29.95R
RIVERTON       CLOUDY    78  40  25 SW21      29.92R
CASPER         MOSUNNY   83  41  22 S3        29.92F
DOUGLAS        PTSUNNY   83  51  33 S9        29.92F

$$
WYZ021-027>030-104>119-012300-
...SOUTHERN WYOMING...

CITY           SKY/WX    TMP DP  RH WIND       PRES   REMARKS
EVANSTON       MOSUNNY   77  33  20 SW23G32   30.02F
KEMMERER       SUNNY     77  30  18 SW17G26   30.04F
FORT BRIDGER   MOSUNNY   66  48  52 S16       30.06F
ROCK SPRINGS   MOSUNNY   79  32  18 SW23G30   30.01F
DIXON          FAIR      78  38  23 S9        30.07F
RAWLINS          N/A     74  39  28 S20       30.04F
SARATOGA       FAIR      66  34  30 S20G37    30.12R
LARAMIE        PTSUNNY   72  38  29 NE7       30.10F
CHEYENNE       PTSUNNY   70  47  43 NE10      30.08S
TORRINGTON     CLOUDY    74  46  36 SW24G41   29.96S HAZE
PINE BLUFFS    PTSUNNY   72  46  40 NW20G35   30.03R

$$



USA.gov is the U.S. government's official web portal to all federal, state and local government web resources and services.